Previsão horária em Abrazheevka

Hoje, 18 Maio, Terça-feira

Tempo Temperatura Precipitação Vento Pressão Humidade
00:00 +14°C° 0 mm 2 m/s 745 mmHg 52%
01:00 +14°C° 0 mm 2 m/s 745 mmHg 53%
02:00 +13°C° 0 mm 2 m/s 745 mmHg 53%
03:00 +13°C° 0 mm 2 m/s 745 mmHg 52%
04:00 +13°C° 0 mm 2 m/s 745 mmHg 54%
05:00 +13°C° 0 mm 2 m/s 746 mmHg 56%
06:00 +13°C° 0 mm 2 m/s 746 mmHg 58%
07:00 +16°C° 0 mm 2 m/s 746 mmHg 53%
08:00 +19°C° 0 mm 3 m/s 746 mmHg 48%
09:00 +22°C° 0 mm 3 m/s 746 mmHg 43%
10:00 +24°C° 0 mm 3 m/s 746 mmHg 40%
11:00 +26°C° 0 mm 3 m/s 746 mmHg 36%
12:00 +27°C° 0 mm 3 m/s 746 mmHg 33%
13:00 +28°C° 0 mm 4 m/s 745 mmHg 33%
14:00 +28°C° 0 mm 4 m/s 745 mmHg 34%
15:00 +28°C° 0 mm 5 m/s 745 mmHg 34%
16:00 +26°C° 0 mm 5 m/s 745 mmHg 38%
17:00 +23°C° 0 mm 5 m/s 745 mmHg 43%
18:00 +21°C° 0 mm 5 m/s 745 mmHg 47%
19:00 +19°C° 0 mm 5 m/s 745 mmHg 48%
20:00 +17°C° 0 mm 5 m/s 745 mmHg 49%
21:00 +15°C° 0 mm 5 m/s 746 mmHg 50%
22:00 +14°C° 0 mm 4 m/s 746 mmHg 54%
23:00 +14°C° 0 mm 4 m/s 746 mmHg 58%

Amanhã, 19 Maio, Quarta-feira

Tempo Temperatura Precipitação Vento Pressão Humidade
00:00 +13°C° 0 mm 4 m/s 746 mmHg 62%
01:00 +12°C° 0 mm 4 m/s 746 mmHg 64%
02:00 +12°C° 0 mm 4 m/s 746 mmHg 66%
03:00 +12°C° 0 mm 4 m/s 746 mmHg 68%
04:00 +12°C° 0 mm 4 m/s 746 mmHg 70%
05:00 +12°C° 0 mm 4 m/s 746 mmHg 72%
06:00 +12°C° 0 mm 3 m/s 746 mmHg 74%
07:00 +15°C° 0 mm 4 m/s 746 mmHg 66%
08:00 +17°C° 0 mm 5 m/s 746 mmHg 59%
09:00 +20°C° 0 mm 5 m/s 745 mmHg 52%
10:00 +21°C° 0 mm 6 m/s 745 mmHg 50%
11:00 +23°C° 0 mm 6 m/s 745 mmHg 48%
12:00 +24°C° 0 mm 6 m/s 745 mmHg 46%
13:00 +24°C° 0 mm 6 m/s 745 mmHg 46%
14:00 +24°C° 0 mm 6 m/s 745 mmHg 46%
15:00 +24°C° 0 mm 6 m/s 745 mmHg 47%
16:00 +22°C° 0.1 mm 5 m/s 745 mmHg 54%
17:00 +21°C° 0.1 mm 5 m/s 745 mmHg 61%
18:00 +19°C° 0.1 mm 4 m/s 745 mmHg 67%
19:00 +18°C° 0.6 mm 3 m/s 746 mmHg 74%
20:00 +17°C° 0.6 mm 3 m/s 746 mmHg 80%
21:00 +15°C° 0.6 mm 2 m/s 747 mmHg 86%
22:00 +15°C° 0 mm 2 m/s 747 mmHg 87%
23:00 +13°C° 0 mm 3 m/s 747 mmHg 88%

Depois de amanhã, 20 Maio, Quinta-feira

Tempo Temperatura Precipitação Vento Pressão Humidade
00:00 +13°C° 0 mm 3 m/s 747 mmHg 89%
01:00 +12°C° 0 mm 3 m/s 747 mmHg 88%
02:00 +12°C° 0 mm 3 m/s 747 mmHg 88%
03:00 +12°C° 0 mm 3 m/s 747 mmHg 87%
04:00 +12°C° 0 mm 3 m/s 747 mmHg 86%
05:00 +13°C° 0 mm 3 m/s 747 mmHg 84%
06:00 +13°C° 0 mm 3 m/s 747 mmHg 83%
07:00 +17°C° 0 mm 3 m/s 747 mmHg 73%
08:00 +20°C° 0 mm 4 m/s 747 mmHg 64%
09:00 +23°C° 0 mm 4 m/s 747 mmHg 55%
10:00 +26°C° 0 mm 4 m/s 746 mmHg 51%
11:00 +27°C° 0 mm 5 m/s 746 mmHg 46%
12:00 +29°C° 0 mm 5 m/s 746 mmHg 42%
13:00 +29°C° 0 mm 6 m/s 746 mmHg 42%
14:00 +29°C° 0 mm 6 m/s 746 mmHg 41%
15:00 +29°C° 0 mm 6 m/s 745 mmHg 41%
16:00 +27°C° 0 mm 6 m/s 745 mmHg 46%
17:00 +25°C° 0 mm 5 m/s 746 mmHg 51%
18:00 +22°C° 0 mm 5 m/s 746 mmHg 56%
19:00 +21°C° 0 mm 5 m/s 746 mmHg 54%
20:00 +20°C° 0 mm 5 m/s 746 mmHg 53%
21:00 +19°C° 0 mm 5 m/s 747 mmHg 51%
22:00 +18°C° 0 mm 4 m/s 747 mmHg 53%
23:00 +18°C° 0 mm 4 m/s 747 mmHg 56%

21 Maio, Sexta-feira

Tempo Temperatura Precipitação Vento Pressão Humidade
00:00 +17°C° 0 mm 3 m/s 747 mmHg 59%
01:00 +16°C° 0 mm 3 m/s 747 mmHg 61%
02:00 +16°C° 0 mm 3 m/s 746 mmHg 64%
03:00 +15°C° 0 mm 2 m/s 746 mmHg 66%
04:00 +15°C° 0 mm 2 m/s 746 mmHg 67%
05:00 +16°C° 0 mm 2 m/s 746 mmHg 68%
06:00 +16°C° 0 mm 2 m/s 746 mmHg 68%
07:00 +17°C° 0 mm 2 m/s 745 mmHg 63%
08:00 +19°C° 0 mm 2 m/s 745 mmHg 58%
09:00 +22°C° 0 mm 1 m/s 745 mmHg 53%
10:00 +23°C° 0 mm 2 m/s 744 mmHg 52%
11:00 +23°C° 0 mm 2 m/s 744 mmHg 50%
12:00 +24°C° 0 mm 2 m/s 744 mmHg 48%
13:00 +24°C° 0 mm 2 m/s 744 mmHg 52%
14:00 +23°C° 0 mm 2 m/s 743 mmHg 55%
15:00 +23°C° 0 mm 2 m/s 743 mmHg 59%
16:00 +21°C° 0 mm 2 m/s 743 mmHg 62%
17:00 +21°C° 0 mm 1 m/s 742 mmHg 66%
18:00 +21°C° 0 mm 1 m/s 742 mmHg 70%
19:00 +20°C° 0 mm 1 m/s 742 mmHg 70%
20:00 +19°C° 0 mm 1 m/s 742 mmHg 70%
21:00 +16°C° 0 mm 0 m/s 742 mmHg 70%
22:00 +18°C° 0 mm 1 m/s 742 mmHg 69%
23:00 +18°C° 0 mm 1 m/s 742 mmHg 68%

22 Maio, Sábado

Tempo Temperatura Precipitação Vento Pressão Humidade
00:00 +18°C° 0 mm 1 m/s 741 mmHg 68%
01:00 +16°C° 0 mm 1 m/s 741 mmHg 69%
02:00 +16°C° 0 mm 1 m/s 741 mmHg 71%
03:00 +15°C° 0 mm 2 m/s 741 mmHg 72%
04:00 +16°C° 0 mm 2 m/s 741 mmHg 73%
05:00 +16°C° 0 mm 1 m/s 741 mmHg 74%
06:00 +16°C° 0 mm 1 m/s 741 mmHg 75%
07:00 +18°C° 0 mm 3 m/s 742 mmHg 68%
08:00 +20°C° 0 mm 4 m/s 742 mmHg 60%
09:00 +22°C° 0 mm 5 m/s 742 mmHg 53%
10:00 +20°C° 0 mm 5 m/s 742 mmHg 59%
11:00 +19°C° 0 mm 5 m/s 742 mmHg 65%
12:00 +18°C° 0 mm 4 m/s 743 mmHg 72%
13:00 +18°C° 0 mm 4 m/s 743 mmHg 71%
14:00 +19°C° 0 mm 4 m/s 743 mmHg 70%
15:00 +19°C° 0 mm 3 m/s 744 mmHg 69%
16:00 +19°C° 0 mm 2 m/s 744 mmHg 70%
17:00 +20°C° 0 mm 1 m/s 744 mmHg 70%
18:00 +20°C° 0 mm 1 m/s 745 mmHg 71%
19:00 +17°C° 0 mm 0 m/s 745 mmHg 75%
20:00 +15°C° 0 mm 0 m/s 745 mmHg 80%
21:00 +14°C° 0 mm 0 m/s 746 mmHg 84%
22:00 +15°C° 0 mm 1 m/s 746 mmHg 86%
23:00 +14°C° 0 mm 1 m/s 747 mmHg 87%

23 Maio, Domingo

Tempo Temperatura Precipitação Vento Pressão Humidade
00:00 +14°C° 0 mm 1 m/s 747 mmHg 88%
01:00 +13°C° 0 mm 1 m/s 747 mmHg 88%
02:00 +13°C° 0 mm 1 m/s 748 mmHg 89%
03:00 +13°C° 0 mm 2 m/s 748 mmHg 89%
04:00 +13°C° 0 mm 2 m/s 748 mmHg 87%
05:00 +13°C° 0 mm 2 m/s 748 mmHg 85%
06:00 +13°C° 0 mm 2 m/s 749 mmHg 83%
07:00 +15°C° 0 mm 2 m/s 748 mmHg 75%
08:00 +18°C° 0 mm 2 m/s 748 mmHg 68%
09:00 +20°C° 0 mm 3 m/s 748 mmHg 61%
10:00 +21°C° 0 mm 4 m/s 748 mmHg 59%
11:00 +21°C° 0 mm 5 m/s 748 mmHg 57%
12:00 +22°C° 0 mm 6 m/s 748 mmHg 54%
13:00 +21°C° 0 mm 6 m/s 748 mmHg 58%
14:00 +20°C° 0 mm 7 m/s 748 mmHg 62%
15:00 +18°C° 0 mm 8 m/s 748 mmHg 65%
16:00 +17°C° 0 mm 7 m/s 747 mmHg 67%
17:00 +16°C° 0 mm 7 m/s 747 mmHg 69%
18:00 +16°C° 0 mm 6 m/s 746 mmHg 71%
19:00 +14°C° 0 mm 6 m/s 747 mmHg 75%
20:00 +13°C° 0 mm 6 m/s 747 mmHg 79%
21:00 +12°C° 0 mm 5 m/s 747 mmHg 83%
22:00 +10°C° 0 mm 5 m/s 747 mmHg 85%
23:00 +10°C° 0 mm 5 m/s 747 mmHg 87%
Mostrar mais

Necessitamos do seu Consentimento

A Meteoprog e os seus Fornecedores de Serviços podem armazenar e aceder a dados pessoais como cookies, identificadores do dispositivo ou outras tecnologias semelhantes existentes no seu dispositivo e processar estes dados para personalizar conteúdos e anúncios, assim como funcionalidades nas redes sociais e análise de tráfego.

  • Armazenar e/ou aceder a informações no seu dispositivo

    Os cookies, identificadores do dispositivo ou outras informações podem ser armazenados ou acedidos no seu dispositivo, para os fins acima indicados.

  • Anúncios e conteúdos personalizados, medição de anúncios e conteúdos, dados sobre o público-alvo e desenvolvimento de produtos

    Os anúncios e os conteúdos podem ser personalizados com base num perfil. Podem ser adicionados dados adicionais para uma maior personalização dos anúncios e dos conteúdos. A eficácia dos anúncios e dos conteúdos pode ser medida. Podem ser obtidas informações sobre o público que visualizou os anúncios e os conteúdos. Estes dados podem ser usados para desenvolver ou melhorar sistemas, softwares ou a experiência do utilizador.

Ao clicar em "Eu concordo”, permitirá o uso de cookies, identificadores do dispositivo e web beacons mencionados ou outras tecnologias semelhantes. As configurações do navegador do seu dispositivo podem ser alteradas.

Para certos fins, podem ser invocados interesses legítimos ao invés de consentimento. Pode ler mais informação sobre este assunto na nossa Política de Privacidade e Cookies.